Regional Weather Roundup
Issued by NWS State College, PA

Home | Current Version | Previous Version | Graphics & Text | Print | Product List | Glossary Off
Versions: 1 2 3 4 5 6 7 8 9 10 11 12 13 14 15 16 17 18 19 20 21 22 23 24 25 26 27 28 29 30 31 32 33 34 35 36 37 38 39 40 41 42 43 44 45 46 47 48 49 50

000
ASUS41 KCTP 040610
RWRCTP

REGIONAL WEATHER ROUNDUP
NATIONAL WEATHER SERVICE STATE COLLEGE PA
100 AM EST WED MAR 04 2015

Note: "fair" indicates few or no clouds below 12,000 feet with no
significant weather and/or obstructions to visibility.

* = STATION THAT DOES NOT REPORT PRECIPITATION /E.G. RAIN...SNOW...ETC/
    THUNDER OR FOG.

PAZ002>004-007>009-013>016-020>023-029>032-040700-
WESTERN PENNSYLVANIA

CITY           SKY/WX    TMP DP  RH WIND       PRES   REMARKS
ERIE           CLOUDY    36  31  82 W15G33    29.76R
MEADVILLE        N/A     36  31  82 W14G20    29.74R
FRANKLIN*      CLOUDY    37  34  87 W13G18    29.75S
NEW CASTLE     CLOUDY    38  36  92 W12       29.79R
BEAVER COUNTY  NOT AVBL
BUTLER*        CLOUDY    39  37  93 W8        29.78R
PITTSBURGH INT LGT RAIN  40  39  97 W14       29.78R
PITTSBURGH     LGT RAIN  44  40  85 W12       29.75S
INDIANA*       CLOUDY    43  43 100 NW6G13    29.79R FOG
LATROBE        LGT RAIN  46  46 100 SW8       29.79R
WASHINGTON CO* CLOUDY    45  43  93 W10       29.79S
$$

PAZ004>006-010>012-017>019-024>028-033>037-041-042-045-046-049>053-040700-
CENTRAL PENNSYLVANIA

CITY           SKY/WX    TMP DP  RH WIND       PRES   REMARKS
BRADFORD       LGT RAIN  37  34  89 W7G16     29.66R FOG
DUBOIS         MIX PCPN  37  37 100 W12       29.71S FOG
CLEARFIELD     LGT RAIN  33  31  92 S7        29.72F VSB 1
JOHNSTOWN      LGT RAIN  43  43 100 W8        29.74R FOG
ALTOONA        CLOUDY    33  32  96 CALM      29.74F FOG
STATE COLLEGE  MIX PCPN  32  32  99 CALM      29.73F
WILLIAMSPORT   FRZ RAIN  30  26  85 CALM      29.78S
SELINSGROVE    CLOUDY    31  28  89 S6        29.80F FOG
FT INDIANTOWN  MOCLDY    32  28  86 S2        29.81S FOG
CAPITAL CITY   MIX PCPN  32  29  88 VRB3      29.82S FOG
HARRISBURG     FRZ RAIN  33  30  88 CALM      29.82S FOG
YORK           LGT RAIN  35  31  85 W3        29.81S
$$

PAZ038>040-043-044-047-048-054-055-060>062-067>071-040700-
EASTERN PENNSYLVANIA

CITY           SKY/WX    TMP DP  RH WIND       PRES   REMARKS
SCRANTON       CLOUDY    30  27  88 SW7       29.75R FOG
MOUNT POCONO   CLOUDY    29  27  92 W14G25    29.69S FOG
ALLENTOWN      SLEET     34  30  85 W6        29.81R
QUAKERTOWN*    CLOUDY    32  32 100 CALM      29.81S
READING        CLOUDY    34  29  82 SW7       29.82R
LANCASTER      LGT RAIN  33  30  88 SW5       29.82S FOG
COATESVILLE    MOCLDY    34  34 100 SW6       29.82S
POTTSTOWN      CLOUDY    34  32  92 SW7       29.82F
BLUE BELL      CLOUDY    36  34  93 SW6       29.80F
DOYLESTOWN     CLOUDY    32  32 100 SW8       29.79F
WILLOW GROVE   NOT AVBL
NORTH PHILA    LGT RAIN  36  31  82 SW10      29.84F
PHILADELPHIA   DRIZZLE   34  32  92 S9        29.84F FOG
$$



USA.gov is the U.S. government's official web portal to all federal, state and local government web resources and services.